Regional Weather Roundup
Issued by NWS

Home | Current Version | Previous Version | Text Only | Print | Product List | Glossary On
Versions: 1 2 3 4 5 6 7 8 9 10 11 12 13 14 15 16 17 18 19 20 21 22 23 24 25 26 27 28 29 30 31 32 33 34 35 36 37 38 39 40 41 42 43 44 45 46 47 48 49 50
000
ASUS43 KMPX 011210
RWRMN
WEATHER ROUNDUP FOR MINNESOTA
NATIONAL WEATHER SERVICE TWIN CITIES/CHANHASSEN MN
700 AM CDT FRI AUG 01 2014


NOTE: "FAIR" INDICATES FEW OR NO CLOUDS BELOW 12,000 FEET WITH NO
SIGNIFICANT WEATHER AND/OR OBSTRUCTIONS TO VISIBILITY. N/A MEANS
CURRENT SKY AND/OR WEATHER CONDITIONS ARE NOT AVAILABLE.

MNZ060>063-068>070-011300-
   Twin Cities Metro

CITY           SKY/WX    TMP DP  RH WIND       PRES   REMARKS
TWIN CITIES    CLEAR     65  60  84 CALM      30.05R
6HR MIN TEMP:  65; 6HR MAX TEMP:  71;

ST PAUL        CLEAR     64  60  87 NW3       30.05R
CRYSTAL        CLEAR     62  58  86 SW3       30.04R
BLAINE         CLEAR     64  61  88 CALM      30.05R
LAKEVILLE      CLEAR     59  57  94 CALM      30.06R
EDEN PRAIRIE   CLEAR     61  59  93 SW5       30.05R
6HR MIN TEMP:  61; 6HR MAX TEMP:  66;

SOUTH ST PAUL  CLEAR     65  59  80 CALM      30.05R
LAKE ELMO      FAIR      59  59 100 CALM      30.06R
$$
MNZ001>005-007-008-013>017-022>024-027-028-011300-
   Northwest Minnesota

CITY           SKY/WX    TMP DP  RH WIND       PRES   REMARKS
BEMIDJI        CLEAR     55  55  97 W3        30.06R
HALLOCK        CLEAR     57  55  94 CALM      30.05S FOG
ROSEAU         CLEAR     54  48  82 CALM      30.05S
WARROAD        CLEAR     55  52  88 CALM      30.05R
THIEF RVR FALL CLEAR     57  55  94 CALM      30.06S
CROOKSTON      PTCLDY    59  57  94 CALM      30.06R FOG
FOSSTON          N/A     54  52  94 S3        30.07R FOG
DETROIT LAKES  PTCLDY    63  61  94 CALM      30.07S FOG
MOORHEAD       CLEAR     59  59 100 CALM      30.06R
PARK RAPIDS    PTCLDY    60  57  89 N3        30.06R
$$
MNZ006-009>011-018-025>026-011300-
   North Central Minnesota

CITY           SKY/WX    TMP DP  RH WIND       PRES   REMARKS
BAUDETTE       CLEAR     54  52  93 SW3       30.05R
FLAG ISLAND    CLEAR     64  61  88 CALM      30.03R
INTL FALLS     SUNNY     50  49  96 SE3       30.04R
6HR MIN TEMP:  45; 6HR MAX TEMP:  51;

WASKISH        CLEAR     55  54  94 CALM      30.05R FOG
BIG FORK       CLEAR     52  50  93 CALM      30.05S
LONGVILLE      MOCLDY    54  54 100 CALM      30.05S FOG
GRAND RAPIDS   PTCLDY    55  54  94 CALM      30.06S
CRANE LAKE     SUNNY     46  46 100 CALM      30.07R FOG
ORR            SUNNY     48  45  87 CALM      30.03S FOG
COOK           SUNNY     46  46 100 CALM      30.06R FOG
$$
MNZ012-019>021-037-011300-
   Northeast Minnesota

CITY           SKY/WX    TMP DP  RH WIND       PRES   REMARKS
DULUTH         MOSUNNY   58  55  90 CALM      30.06R
6HR MIN TEMP:  54; 6HR MAX TEMP:  60;

ELY            MOSUNNY   46  46 100 CALM      30.07R FOG
HIBBING        SUNNY     49  47  93 CALM      30.06S FOG
EVELETH        FOG       46  45  93 CALM      30.07R VSB 1/4
DULUTH HARBOR  SUNNY     61  55  82 NE8       30.06R
TWO HARBORS    SUNNY     55  48  76 N5        30.04S
SILVER BAY     SUNNY     54  54 100 N3        30.05R
GRAND MARAIS     N/A     55  51  86 CALM      30.05R
G MARAIS ARPRT SUNNY     48  45  87 CALM      30.08R
$$
MNZ029>031-032-039>041-046>048-054>057-064-011300-
   West Central Minnesota

CITY           SKY/WX    TMP DP  RH WIND       PRES   REMARKS
FERGUS FALLS   CLEAR     61  57  88 CALM      30.06S
WHEATON        PTCLDY    57  55  94 CALM      30.09R
MORRIS         CLEAR     57  57 100 NW3       30.07R FOG
ALEXANDRIA     PTCLDY    62  60  93 CALM      30.08R
ELBOW LAKE     FAIR      61  58  92 CALM      30.07R
WADENA         PTCLDY    61  59  94 CALM      30.06S FOG
GLENWOOD       PTCLDY    63  57  82 W3        30.08R
APPLETON       CLEAR     59  55  88 CALM      30.06S
BENSON           N/A     54  54 100 CALM      30.07R FOG
ORTONVILLE     CLEAR     61  55  82 W5        30.07R
MADISON        CLEAR     57  55  94 CALM      30.07R
WILLMAR        FAIR      57  55  94 CALM      30.08S FOG
$$
MNZ033>034-036-042>043-049>051-058-059-011300-
   Central Minnesota

CITY           SKY/WX    TMP DP  RH WIND       PRES   REMARKS
ST CLOUD       CLEAR     59  56  89 CALM      30.05S FOG
6HR MIN TEMP:  58; 6HR MAX TEMP:  64;

SAUK CENTRE    FAIR      57  56  95 CALM      30.08R
PAYNESVILLE    CLEAR     53  54 100 SW5       30.08R FOG
AITKIN         HAZE      55  48  76 CALM      30.05R VSB 3/4
PINE RIVER     CLEAR     54  54 100 CALM      30.09S FOG
BRAINERD       MOCLDY    56  55  97 CALM      30.06R FOG
STAPLES        CLEAR     55  55 100 W2        30.06S
LONG PRAIRIE   FAIR      57  55  94 CALM      30.07S
LITTLE FALLS     N/A     54  54 100 CALM      30.06S FOG
LITCHFIELD     CLEAR     64  63  94 CALM      30.07S
BUFFALO        CLEAR     60  56  88 CALM      30.07R
MAPLE LAKE     CLEAR     61  59  94 CALM      30.07R
$$
MNZ037-044-045-052-053-011300-
   East Central Minnesota

CITY           SKY/WX    TMP DP  RH WIND       PRES   REMARKS
PRINCETON      FOG       59  57  94 CALM      30.05S VSB 1/4
MORA           CLEAR     55  54  94 CALM      30.07R FOG
CAMBRIDGE      CLEAR     63  54  72 CALM      30.03S HAZE
RUSH CITY      PTCLDY    59  58  96 CALM      30.04S
MOOSE LAKE     CLEAR     54  54 100 CALM      30.04R FOG
HINCKLEY       FAIR      57  57 100 CALM      30.05S
CLOQUET        SUNNY     54  52  94 NW3       30.06R
MCGREGOR       CLEAR     52  52 100 CALM      30.07R
$$
MNZ071>073-080-081-089-090-097-098-011300-
   Southwest Minnesota

CITY           SKY/WX    TMP DP  RH WIND       PRES   REMARKS
MONTEVIDEO     CLEAR     57  55  94 CALM      30.08S
GRANITE FALLS  CLEAR     54  52  94 CALM      30.09R FOG
CANBY          CLEAR     60  55  84 W5        30.08S
MARSHALL       CLEAR     57  52  82 W3        30.07R
REDWOOD FALLS  CLEAR     60  55  83 CALM      30.07R
OLIVIA         CLEAR     57  54  88 CALM      30.07R
PIPESTONE      CLEAR     55  54  94 CALM      30.10R
WINDOM         MOCLDY    54  52  94 CALM      30.10R FOG
WORTHINGTON    CLEAR     55  54  94 W5        30.11R
JACKSON        CLEAR     59  55  88 CALM      30.10R
TRACY          CLEAR     62  56  81 W7        30.09R
SLAYTON        CLEAR     57  56  97 CALM      30.11R
$$
MNZ065>067-074>077-082>085-091>093-011300-
   South Central Minnesota

CITY           SKY/WX    TMP DP  RH WIND       PRES   REMARKS
MANKATO        CLEAR     57  54  88 CALM      30.08R
NEW ULM        CLEAR     57  55  94 W3        30.08R
ST JAMES       CLEAR     57  55  94 CALM      30.09R
FAIRMONT       CLEAR     61  54  77 CALM      30.08R
GLENCOE        CLEAR     61  56  85 SW5       30.07R
FARIBAULT      CLEAR     59  54  82 CALM      30.07S
OWATONNA       CLEAR     55  52  88 CALM      30.08R
WASECA         CLEAR     50  46  87 CALM      30.10R
ALBERT LEA     CLEAR     57  57 100 CALM      30.08S FOG
$$
MNZ078>079-086>088-094>096-011300-
   Southeast Minnesota

CITY           SKY/WX    TMP DP  RH WIND       PRES   REMARKS
ROCHESTER      CLEAR     61  53  75 W7        30.09R
6HR MIN TEMP:  57; 6HR MAX TEMP:  61;

RED WING       CLEAR     57  55  94 CALM      30.05R
STANTON        CLEAR     58  55  88 CALM      30.06R
DODGE CENTER   CLEAR     57  55  94 W5        30.08R
WINONA         SUNNY     59  57  94 CALM      30.06R
AUSTIN         CLEAR     54  54 100 CALM      30.08R
PRESTON        CLEAR     61  56  84 W3        30.08R
$$
ABBREVIATIONS USED IN REMARKS
   TC - TEMPERATURES IN CELSIUS
  WCI - WIND CHILL INDEX
   HX - HEAT INDEX
  VSB - VISIBILITY
$$


USA.gov is the U.S. government's official web portal to all federal, state and local government web resources and services.